User: anonymous   Login
Location: Boca do Mato
(22.9085°S, 43.2930°W)
Time: 08:54:36
(UTC+00:00)
Language:

Cosmos 2266 Rocket - Orbit

View from above orbital plane
View from above orbital plane
View from above satellite
View from above satellite

Ground track
Ground track

The orbit data is extracted from the following two-line orbital elements,

1 22889U 93070B   20272.80153706 +.00000088 +00000-0 +71708-4 0  9994
2 22889 082.9453 145.2872 0051110 106.6387 254.0391 13.77925084352583
Epoch (UTC): 28 September 2020 19:14:12
Eccentricity: 0.0051110
inclination: 82.9453°
perigee height: 933 km
apogee height: 1009 km
right ascension of ascending node: 145.2872°
argument of perigee: 106.6387°
revolutions per day: 13.77925084
mean anomaly at epoch: 254.0391°
orbit number at epoch: 35258

The dashed part of the orbit path shows where the satellite is in the earth's shadow,  

DLR